This demonstration page uses our WeatherBlox Daily Observations layout. Learn more.

Left ArrowRight Arrow

39.01783, -85.05884

Hourly Observations for December 18, 2017

Temp ( °F °C ) Dew Point ( °F °C ) Humidity (%) Winds ( mph kmh ) Pressure ( in mb ) Visibility ( mi km ) Precip ( " mm )
12:52 am 00:52 Cloudy with Drizzle 41 5 40 4.4 96 96 SSW 7 11 30.10 1019 8 13 0.00 0.03
1:03 am 01:03 Cloudy with Drizzle 41 5 40 4.4 96 96 SSW 8 13 30.12 1020 8 13 0.00 0.03
1:52 am 01:52 Cloudy with Drizzle 41 5 40 4.4 96 96 S 7 11 30.08 1019 6 10 0.00 0.03
2:02 am 02:02 Cloudy with Drizzle 41 5 40 4.4 96 96 S 7 11 30.12 1020 6 10 0.00 0.03
2:41 am 02:41 Cloudy with Drizzle 41 5 41 5 100 100 S 7 11 30.12 1020 4 6 0.00 0.03
2:52 am 02:52 Cloudy with Mist and Fog 41 5 41 5 100 100 S 7 11 30.10 1019 4 6 0.00 0.03
3:11 am 03:11 Cloudy with Mist and Fog 41 5 41 5 100 100 S 6 9 30.12 1020 1 1 0.00 0.00
3:52 am 03:52 Cloudy with Mist and Fog 40 4.4 40 4.4 100 100 SSW 6 9 30.09 1019 1 2 0.00 0.00
4:52 am 04:52 Cloudy with Mist and Fog 41 5 41 5 100 100 S 6 9 30.07 1018 1 2 0.00 0.00
5:52 am 05:52 Cloudy with Mist and Fog 41 5 41 5 100 100 SSW 8 13 30.07 1018 1 2 0.00 0.00
6:52 am 06:52 Cloudy with Light Rain 42 5.6 42 5.6 100 100 SW 8 13 30.09 1019 1 2 0.01 0.25
7:32 am 07:32 Cloudy with Drizzle 42 5.6 42 5.6 100 100 SSW 7 11 30.09 1019 1 1 0.00 0.03
7:45 am 07:45 Cloudy with Drizzle 42 5.6 42 5.6 100 100 SW 9 15 30.12 1020 1 1 0.00 0.03
7:52 am 07:52 Cloudy with Drizzle 42 5.6 42 5.6 100 100 SSW 9 15 30.08 1019 1 1 0.00 0.03
8:06 am 08:06 Cloudy with Drizzle 42 5.6 42 5.6 100 100 SW 8 13 30.12 1020 1 2 0.00 0.03
8:52 am 08:52 Cloudy with Drizzle 43 6.1 43 6.1 100 100 SW 7 11 30.09 1019 1 2 0.00 0.03
9:52 am 09:52 Cloudy with Mist and Fog 43 6.1 43 6.1 100 100 SSW 6 9 30.10 1019 1 2 0.00 0.03
9:56 am 09:56 Cloudy with Mist and Fog 43 6.1 43 6.1 100 100 SSW 8 13 30.12 1020 1 2 0.00 0.00
10:41 am 10:41 Cloudy with Mist and Fog 44 6.7 44 6.7 100 100 SSW 8 13 30.12 1020 2 3 0.00 0.00
10:52 am 10:52 Cloudy with Mist and Fog 44 6.7 44 6.7 100 100 SW 10 17 30.10 1019 2 3 0.00 0.00
11:02 am 11:02 Cloudy with Mist and Fog 44 6.7 44 6.7 100 100 SW 8 13 30.12 1020 2 3 0.00 0.00
11:52 am 11:52 Cloudy with Drizzle 45 7.2 45 7.2 100 100 SW 9 15 30.09 1019 2 3 0.00 0.03
12:30 pm 12:30 Cloudy with Mist and Fog 46 7.8 46 7.8 100 100 SW 9 15 30.09 1019 3 5 0.00 0.03
12:52 pm 12:52 Cloudy with Mist and Fog 46 7.8 45 7.2 96 96 SW 10 17 30.04 1017 3 5 0.00 0.03
1:52 pm 13:52 Cloudy 47 8.3 45 7.2 93 93 SW 9 15 30.03 1017 7 11 0.00 0.00
2:11 pm 14:11 Cloudy 47 8.3 45 7.2 93 93 WSW 10 17 30.06 1018 8 13 0.00 0.00
2:52 pm 14:52 Cloudy with Drizzle 47 8.3 45 7.2 93 93 WSW 9 15 30.02 1017 4 6 0.00 0.03
3:52 pm 15:52 Cloudy 46 7.8 46 7.8 100 100 SW 8 13 30.03 1017 7 11 0.00 0.03
4:52 pm 16:52 Cloudy 46 7.8 45 7.2 96 96 SW 10 17 30.03 1017 9 14 0.00 0.00
5:52 pm 17:52 Cloudy with Mist and Fog 46 7.8 46 7.8 100 100 SW 8 13 30.04 1017 6 10 0.00 0.03
6:37 pm 18:37 Cloudy 46 7.8 45 7.2 96 96 SW 9 15 30.09 1019 8 13 0.00 0.00
6:52 pm 18:52 Cloudy 46 7.8 45 7.2 96 96 SW 10 17 30.05 1018 10 16 0.00 0.00
7:52 pm 19:52 Cloudy with Mist and Fog 45 7.2 45 7.2 100 100 SW 10 17 30.06 1018 5 8 0.00 0.00
8:52 pm 20:52 Cloudy 46 7.8 44 6.7 93 93 SSW 10 17 30.06 1018 10 16 0.00 0.00
9:35 pm 21:35 Cloudy 46 7.8 44 6.7 93 93 SW 9 15 30.09 1019 9 14 0.00 0.00
9:52 pm 21:52 Cloudy 46 7.8 44 6.7 93 93 SW 9 15 30.06 1018 9 14 0.00 0.00
10:52 pm 22:52 Cloudy 46 7.8 43 6.1 89 89 SW 13 20 30.04 1017 10 16 0.00 0.00
11:52 pm 23:52 Cloudy 46 7.8 43 6.1 89 89 SW 12 19 30.05 1018 10 16 0.00 0.00

Powered by AerisWeather